Tracking 18796 objects as of 20-September-2017
HD Live streaming from Space Station
objects crossing your sky now

IRIDIUM 75

Track IRIDIUM 75 now!
10-day predictions
IRIDIUM 75 is classified as:


NORAD ID: 25346
Int'l Code: 1998-032E
Perigee: 783.2 km
Apogee: 786.4 km
Inclination: 86.4 °
Period: 100.4 minutes
Semi major axis: 7155 km
RCS: 4.0637 m2 (large)
Launch date: May 17, 1998
Source: United States (US)
Launch site: AIR FORCE WESTERN TEST RANGE (AFWTR)
aabbcc
Your satellite tracking list
Your tracking list is empty





NASA's NSSDC Master Catalog

Two Line Element Set (TLE):
1 25346U 98032E   17262.87685902 +.00000172 +00000-0 +54444-4 0  9990
2 25346 086.4022 184.5582 0002248 082.3722 277.7729 14.34223145012943
Source of the keplerian elements: AFSPC